Location: Joplin, MO
(37.0842°N, 94.5133°W)
Time: 10:28:25
(UTC+02:00)

Transit 2A - Pass Details

Date: 06 April 2023
Orbit: 591 x 964 km, 66.7° (Epoch: 03 June)

Event Time Altitude Azimuth Distance (km) Brightness Sun altitude
Exits shadow 10:04:41 25° 37° (NE) 1,673 8.2 -40.2°
Drops below altitude 10° 10:07:08 10° 32° (NNE) 2,563 9.4 -39.9°
Sets 10:09:46 0° 31° (NNE) 3,553 10.3 -39.6°
